Location: ???????
(55.4362°N, 38.1183°E)
Time: 13:30:30
(UTC+00:00)

Cosmos 2219 Rocket - Pass Details

Date: 24 October 2021
Orbit: 826 x 848 km, 71.0° (Epoch: 01 December)

Event Time Altitude Azimuth Distance (km) Brightness Sun altitude
Exits shadow 01:35:34 11° 329° (NNW) 2,416 4.4 -23.2°
Maximum altitude 01:41:04 66° 51° (NE) 920 2.5 -22.5°
Drops below altitude 10° 01:46:43 10° 134° (SE) 2,465 5.0 -21.7°
Sets 01:49:11 0° 137° (SE) 3,399 5.8 -21.3°
